Orbital Elements at Epoch 2459200.5 (2020-Dec-17.0) TDB
Reference: JPL 33 (heliocentric ecliptic J2000)
Element | Value | Uncertainty (1-sigma) | Units |
e | .2809361464995789 | 1.7553e-08 | |
a | 2.341015169643721 | 6.2337e-09 | au |
q | 1.683339388986956 | 4.0555e-08 | au |
i | 23.4164009977724 | 2.1403e-06 | deg |
node | 236.8854655389101 | 2.4011e-06 | deg |
peri | 149.1730606868388 | 3.4656e-06 | deg |
M | 24.52079545279234 | 3.0339e-06 | deg |
tp | 2459111.387870406436 (2020-Sep-18.88787041) | 1.1024e-05 | TDB |
period | 1308.292249957566 3.58 | 5.2256e-06 1.431e-08 | d yr |
n | .2751678762995625 | 1.0991e-09 | deg/d |
Q | 2.998690950300486 | 7.985e-09 | au |
|
| | Orbit Determination Parameters
Additional Information
|